map of EGS home
EGS - Airport
Location
City:  Egilsstašir, Iceland
Near (Alt.):Egilsstadir
ICAO:BIEG
IATA:EGS

Details
Type:Airport (Aerodrome, Airfield)
Latitude:65°17'00"N (65.283333)
Longitude:14°24'05"W (-14.401388)
Elevation:76 ft (23 m)
Variation:9.83°W (WMM2015 magnetic declination)
0.26° annual change
Runways:1
Longest:6562 × 148 ft (2000 × 45 m), paved

Time
Time Zone:UTC+0
Local Time:

Weather
METAR:BIEG 220400Z 09006KT 9999 SCT034 BKN052 00/M03 Q0983 R04/750195
TAF:BIEG 220131Z 2203/2303 19012KT 9999 FEW030 BKN050 TXM01/2203Z TNM10/2223Z
TEMPO 2203/2215 2500 SHSN BKN012CB

Related Locations
Nearby:
Farthest:NZTB: 11777 mi / 18954 km
Terra Nova Bay [Mario Zucchelli Station], AQ

Find:

   beyond  
but within

Other Information
Maps:
NOTAMs:
Links:
Sources:

  
  • flag of Iceland
  

Airport Diagram

Airport diagram for EGS

Larger airport diagram (OBSOLETE) from NGA

Sectional Chart

Flight Planning
at skyvector.com

Satellite Image

Google Maps Satellite view

 

Copyright © 2004-2019 Karl L. Swartz. All rights reserved.
The Great Circle Mapper name and logo are trademarks of the Great Circle Mapper.
All other trademarks mentioned herein belong to their respective owners.
Please see credits for attibutions and further copyright information.

  Follow gcmap on Facebook Follow gcmap on Twitter Follow gcmap on Google+ GCmap on LinkedIn

hCard Microformat

Geo Microformat